Aérodrome :
LOGIN :

S'inscrire | Disclaimer

   EN    FR    IT 

 










Légende :    VFR   VFR Marginal   IFR   IFR Intensif   IFR Très Intensif
Visi : 
Plafond : 
>= 8 km
>= 3000ft
5 à 8 km
1000 à 3000 ft
1500m à 5 km
500 à 1000 ft
800 à 1500m
200 à 500 ft
< 800m
< 200 ft
Symboles :   Orages  Brouillard  Fortes neiges  Fortes précipitations  Vent > 20 kt
SIGMETs :   Divers  Orages  Givrage  Turbulence  Onde Orograph.  Cendres Volcan.







- Altitude de l'aérodrome : 821 ft
- Code IATA : LYS
- Voir les cartes d'approche


LFLL - Lyon St Exupéry / Satolas

DERNIER METAR :
  • 241230Z 35006KT 310V040 CAVOK 18/05 Q1024 NOSIG

METARs EXPIRÉS :
  • 241200Z 33005KT 270V020 CAVOK 17/05 Q1024 NOSIG
  • 241130Z 35004KT 300V040 9000 NSC 16/05 Q1024 NOSIG
  • 241100Z 01006KT 320V040 9000 NSC 15/06 Q1025 NOSIG
  • 241030Z 35005KT 330V040 9000 NSC 13/05 Q1025 NOSIG
  • 241000Z 34005KT 300V020 9000 NSC 12/06 Q1025 NOSIG

TAF TAF LFLL
Valide du 24 à 12h jusqu'au 25 à 18h UTC


241100Z 2412/2518 36010KT CAVOK
PROB40
TEMPO 2504/2509 BKN014
TEMPO 2509/2518 36020KT
Pas de NOTAMs connus pour ce terrain.



MET'MAP, la Météo Aéronautique d'un coup d'oeil ! - Copyright ORBIFLY Décembre 2007 - Disclaimer

ORBIFLY MET'MAP TEAM :

Programmation & Développement : Alexandra Zaïnal
Conception & Développement : Baudouin d'Aumeries
Co-Programmation & Développement : Marc-Olivier Méhu
Soutien technique & logistique : Manuel Goepfert

Contact : metmap@orbifly.com




SOURCES & CREDITS :

   NOAA